TimeEDT,TemperatureF,Dew PointF,Humidity,Sea Level PressureIn,VisibilityMPH,Wind Direction,Wind SpeedMPH,Gust SpeedMPH,PrecipitationIn,Events,Conditions,WindDirDegrees,DateUTC
12:15 AM,57.2,42.8,59,30.16,10.0,Calm,Calm,-,N/A,,Clear,0,2012-10-14 04:15:00
12:35 AM,55.4,42.8,63,30.16,10.0,Calm,Calm,-,N/A,,Clear,0,2012-10-14 04:35:00
1:15 AM,55.4,44.6,67,30.16,10.0,Calm,Calm,-,N/A,,Clear,0,2012-10-14 05:15:00
1:35 AM,57.2,44.6,63,30.15,10.0,Calm,Calm,-,N/A,,Clear,0,2012-10-14 05:35:00
1:55 AM,57.2,44.6,63,30.15,10.0,Calm,Calm,-,N/A,,Clear,0,2012-10-14 05:55:00
2:15 AM,55.4,44.6,67,30.15,10.0,Calm,Calm,-,N/A,,Clear,0,2012-10-14 06:15:00
2:35 AM,57.2,44.6,63,30.14,10.0,Calm,Calm,-,N/A,,Clear,0,2012-10-14 06:35:00
2:55 AM,55.4,44.6,67,30.14,10.0,Calm,Calm,-,N/A,,Clear,0,2012-10-14 06:55:00
3:15 AM,55.4,46.4,72,30.14,10.0,Calm,Calm,-,N/A,,Clear,0,2012-10-14 07:15:00
3:35 AM,55.4,46.4,72,30.14,10.0,Calm,Calm,-,N/A,,Scattered Clouds,0,2012-10-14 07:35:00
3:55 AM,57.2,46.4,67,30.14,10.0,Calm,Calm,-,N/A,,Partly Cloudy,0,2012-10-14 07:55:00
4:15 AM,55.4,46.4,72,30.14,10.0,Calm,Calm,-,N/A,,Clear,0,2012-10-14 08:15:00
4:35 AM,55.4,46.4,72,30.15,10.0,Calm,Calm,-,N/A,,Clear,0,2012-10-14 08:35:00
4:55 AM,55.4,46.4,72,30.14,10.0,Calm,Calm,-,N/A,,Mostly Cloudy,0,2012-10-14 08:55:00
5:15 AM,53.6,46.4,77,30.14,10.0,South,4.6,-,N/A,,Mostly Cloudy,180,2012-10-14 09:15:00
5:35 AM,57.2,46.4,67,30.14,10.0,Calm,Calm,-,N/A,,Mostly Cloudy,0,2012-10-14 09:35:00
5:55 AM,55.4,46.4,72,30.14,10.0,Calm,Calm,-,N/A,,Scattered Clouds,0,2012-10-14 09:55:00
6:15 AM,55.4,46.4,72,30.14,10.0,Calm,Calm,-,N/A,,Mostly Cloudy,0,2012-10-14 10:15:00
6:35 AM,55.4,46.4,72,30.14,10.0,Calm,Calm,-,N/A,,Overcast,0,2012-10-14 10:35:00
6:55 AM,57.2,46.4,67,30.15,10.0,Calm,Calm,-,N/A,,Mostly Cloudy,0,2012-10-14 10:55:00
7:15 AM,55.4,46.4,72,30.15,10.0,Calm,Calm,-,N/A,,Partly Cloudy,0,2012-10-14 11:15:00
7:35 AM,53.6,46.4,77,30.16,10.0,Calm,Calm,-,N/A,,Mostly Cloudy,0,2012-10-14 11:35:00
7:55 AM,53.6,48.2,82,30.16,10.0,Calm,Calm,-,N/A,,Mostly Cloudy,0,2012-10-14 11:55:00
8:15 AM,53.6,48.2,82,30.16,10.0,Calm,Calm,-,N/A,,Scattered Clouds,0,2012-10-14 12:15:00
8:35 AM,55.4,48.2,77,30.16,10.0,Calm,Calm,-,N/A,,Mostly Cloudy,0,2012-10-14 12:35:00
8:55 AM,55.4,48.2,77,30.16,10.0,Calm,Calm,-,N/A,,Scattered Clouds,0,2012-10-14 12:55:00
9:15 AM,60.8,48.2,63,30.15,10.0,SSW,5.8,-,N/A,,Clear,200,2012-10-14 13:15:00
9:35 AM,62.6,50.0,63,30.15,10.0,South,8.1,-,N/A,,Clear,190,2012-10-14 13:35:00
9:55 AM,64.4,51.8,64,30.15,10.0,South,8.1,-,N/A,,Clear,190,2012-10-14 13:55:00
10:15 AM,66.2,51.8,60,30.14,10.0,SSW,6.9,-,N/A,,Scattered Clouds,210,2012-10-14 14:15:00
10:35 AM,66.2,51.8,60,30.14,10.0,SSW,11.5,16.1,N/A,,Mostly Cloudy,210,2012-10-14 14:35:00
10:55 AM,68.0,51.8,56,30.14,10.0,SW,10.4,-,N/A,,Scattered Clouds,220,2012-10-14 14:55:00
11:15 AM,69.8,51.8,53,30.13,10.0,SW,9.2,-,N/A,,Scattered Clouds,220,2012-10-14 15:15:00
11:35 AM,71.6,53.6,53,30.12,10.0,SSW,12.7,17.3,N/A,,Partly Cloudy,210,2012-10-14 15:35:00
11:55 AM,73.4,53.6,50,30.11,10.0,WSW,11.5,17.3,N/A,,Partly Cloudy,240,2012-10-14 15:55:00
12:15 PM,71.6,53.6,53,30.11,10.0,SW,11.5,-,N/A,,Mostly Cloudy,230,2012-10-14 16:15:00
12:35 PM,73.4,55.4,53,30.10,10.0,SW,12.7,17.3,N/A,,Partly Cloudy,230,2012-10-14 16:35:00
12:55 PM,71.6,53.6,53,30.10,10.0,SW,11.5,19.6,N/A,,Partly Cloudy,220,2012-10-14 16:55:00
1:15 PM,73.4,55.4,53,30.08,10.0,SW,10.4,17.3,N/A,,Scattered Clouds,230,2012-10-14 17:15:00
1:35 PM,73.4,55.4,53,30.07,10.0,SW,15.0,19.6,N/A,,Partly Cloudy,230,2012-10-14 17:35:00
1:55 PM,73.4,53.6,50,30.05,10.0,SSW,15.0,25.3,N/A,,Clear,210,2012-10-14 17:55:00
2:15 PM,73.4,53.6,50,30.04,10.0,SW,12.7,18.4,N/A,,Clear,220,2012-10-14 18:15:00
2:35 PM,73.4,53.6,50,30.02,10.0,SSW,10.4,18.4,N/A,,Clear,210,2012-10-14 18:35:00
2:55 PM,75.2,53.6,47,30.01,10.0,SSW,11.5,19.6,N/A,,Clear,210,2012-10-14 18:55:00
3:15 PM,75.2,53.6,47,30.00,10.0,SSW,9.2,18.4,N/A,,Clear,200,2012-10-14 19:15:00
3:35 PM,75.2,51.8,44,29.99,10.0,SSW,12.7,17.3,N/A,,Clear,210,2012-10-14 19:35:00
4:15 PM,75.2,51.8,44,29.98,10.0,SW,12.7,19.6,N/A,,Clear,230,2012-10-14 20:15:00
4:35 PM,73.4,51.8,47,29.97,10.0,SW,11.5,-,N/A,,Clear,230,2012-10-14 20:35:00
4:55 PM,73.4,51.8,47,29.96,10.0,SW,8.1,-,N/A,,Clear,220,2012-10-14 20:55:00
5:15 PM,75.2,53.6,47,29.95,10.0,South,9.2,-,N/A,,Clear,190,2012-10-14 21:15:00
5:35 PM,73.4,51.8,47,29.93,10.0,South,12.7,24.2,N/A,,Clear,190,2012-10-14 21:35:00
5:55 PM,73.4,50.0,44,29.93,10.0,South,11.5,19.6,N/A,,Clear,190,2012-10-14 21:55:00
6:15 PM,71.6,50.0,46,29.92,10.0,South,9.2,16.1,N/A,,Clear,190,2012-10-14 22:15:00
6:35 PM,69.8,50.0,49,29.92,10.0,South,3.5,-,N/A,,Clear,190,2012-10-14 22:35:00
6:55 PM,69.8,50.0,49,29.91,10.0,Calm,Calm,-,N/A,,Clear,0,2012-10-14 22:55:00
7:15 PM,69.8,50.0,49,29.91,10.0,South,5.8,-,N/A,,Clear,190,2012-10-14 23:15:00
7:35 PM,68.0,50.0,52,29.91,10.0,South,8.1,-,N/A,,Clear,190,2012-10-14 23:35:00
7:55 PM,69.8,50.0,49,29.90,10.0,South,9.2,-,N/A,,Clear,190,2012-10-14 23:55:00
8:15 PM,68.0,50.0,52,29.90,10.0,South,6.9,-,N/A,,Clear,180,2012-10-15 00:15:00